| time (UTC) | temp F | wind direction | speed MPH | gust MPH | rain 1hr in | rain 24hr in | rain mn in | humidity % | barometer mb |
| 20260831034558 | 75 | 211 | 3.0 | 6.0 | 0.00 | 0.00 | 0.00 | 83 | 1009.0 |
| 20260831033051 | 75 | 193 | 3.0 | 9.0 | 0.00 | 0.00 | 0.00 | 82 | 1009.1 |
| 20260831031556 | 75 | 162 | 4.0 | 7.0 | 0.00 | 0.00 | 0.00 | 81 | 1009.1 |
| 20260831030058 | 76 | 185 | 3.0 | 11.0 | 0.00 | 0.00 | 0.00 | 81 | 1008.8 |
| 20260831024559 | 76 | 179 | 3.0 | 6.0 | 0.00 | 0.00 | 0.00 | 80 | 1008.8 |
| 20260831023104 | 77 | 207 | 5.0 | 14.0 | 0.00 | 0.00 | 0.00 | 79 | 1008.9 |
| 20260831021558 | 77 | 168 | 4.0 | 8.0 | 0.00 | 0.00 | 0.00 | 78 | 1008.9 |
| 20260831020053 | 78 | 203 | 4.0 | 10.0 | 0.00 | 0.00 | 0.00 | 77 | 1008.9 |
| 20260831014557 | 78 | 165 | 4.0 | 9.0 | 0.00 | 0.00 | 0.00 | 75 | 1008.9 |
| 20260831013056 | 79 | 192 | 3.0 | 14.0 | 0.00 | 0.00 | 0.00 | 73 | 1008.8 |
| 20260831011549 | 80 | 188 | 4.0 | 10.0 | 0.00 | 0.00 | 0.00 | 72 | 1008.6 |
| 20260831010135 | 81 | 226 | 5.0 | 14.0 | 0.00 | 0.00 | 0.00 | 68 | 1008.5 |
| 20260831004558 | 82 | 183 | 7.0 | 17.0 | 0.00 | 0.00 | 0.00 | 66 | 1008.3 |
| 20260831003055 | 83 | 198 | 3.0 | 8.0 | 0.00 | 0.00 | 0.00 | 69 | 1008.2 |
| 20260831001601 | 84 | 205 | 3.0 | 8.0 | 0.00 | 0.00 | 0.00 | 66 | 1007.8 |
| 20260830234558 | 85 | 215 | 6.0 | 12.0 | 0.00 | 0.00 | 0.00 | 66 | 1007.6 |
| 20260830233103 | 85 | 165 | 6.0 | 14.0 | 0.00 | 0.00 | 0.00 | 68 | 1007.8 |
| 20260830231557 | 85 | 187 | 6.0 | 11.0 | 0.00 | 0.00 | 0.00 | 68 | 1007.8 |
| 20260830230056 | 86 | 210 | 4.0 | 11.0 | 0.00 | 0.00 | 0.00 | 68 | 1008.0 |
| 20260830224605 | 86 | 169 | 3.0 | 9.0 | 0.00 | 0.00 | 0.00 | 70 | 1007.7 |
| 20260830223055 | 85 | 38 | 1.0 | 3.0 | 0.00 | 0.00 | 0.00 | 72 | 1007.5 |
| 20260830221559 | 85 | 133 | 0.0 | 6.0 | 0.00 | 0.00 | 0.00 | 72 | 1007.5 |
| 20260830214600 | 85 | 128 | 1.0 | 3.0 | 0.00 | 0.00 | 0.00 | 72 | 1007.8 |
| 20260830213101 | 85 | 145 | 2.0 | 5.0 | 0.00 | 0.00 | 0.00 | 71 | 1007.7 |
| 20260830211600 | 84 | 137 | 1.0 | 5.0 | 0.00 | 0.00 | 0.00 | 71 | 1008.0 |
| 20260830204600 | 84 | 189 | 1.0 | 8.0 | 0.00 | 0.00 | 0.00 | 71 | 1008.2 |
| 20260830203055 | 85 | 177 | 2.0 | 8.0 | 0.00 | 0.00 | 0.00 | 70 | 1008.6 |
| 20260830201628 | 84 | 70 | 2.0 | 7.0 | 0.00 | 0.00 | 0.00 | 72 | 1008.8 |
| 20260830200103 | 83 | 121 | 2.0 | 7.0 | 0.00 | 0.00 | 0.00 | 71 | 1008.6 |
| 20260830194559 | 83 | 202 | 2.0 | 7.0 | 0.00 | 0.00 | 0.00 | 71 | 1008.6 |
| 20260830193049 | 84 | 73 | 2.0 | 7.0 | 0.00 | 0.00 | 0.00 | 71 | 1008.6 |
| 20260830191621 | 83 | 155 | 2.0 | 7.0 | 0.00 | 0.00 | 0.00 | 72 | 1008.6 |
| 20260830190110 | 83 | 225 | 2.0 | 8.0 | 0.00 | 0.00 | 0.00 | 72 | 1008.7 |
| 20260830184557 | 82 | 139 | 2.0 | 7.0 | 0.00 | 0.00 | 0.00 | 73 | 1008.8 |
| 20260830183052 | 81 | 159 | 2.0 | 9.0 | 0.00 | 0.00 | 0.00 | 74 | 1009.5 |
| 20260830181559 | 81 | 198 | 1.0 | 6.0 | 0.00 | 0.00 | 0.00 | 74 | 1009.4 |
| 20260830180059 | 80 | 141 | 2.0 | 5.0 | 0.00 | 0.00 | 0.00 | 76 | 1009.5 |
| 20260830174555 | 79 | 39 | 1.0 | 4.0 | 0.00 | 0.00 | 0.00 | 77 | 1009.7 |
| 20260830173057 | 78 | 205 | 2.0 | 6.0 | 0.00 | 0.00 | 0.00 | 77 | 1009.8 |
| 20260830171603 | 78 | 212 | 1.0 | 7.0 | 0.00 | 0.00 | 0.00 | 78 | 1010.0 |
| 20260830170056 | 79 | 219 | 0.0 | 2.0 | 0.00 | 0.00 | 0.00 | 78 | 1009.8 |
| 20260830164557 | 78 | 124 | 1.0 | 3.0 | 0.00 | 0.00 | 0.00 | 78 | 1009.8 |
| 20260830163054 | 77 | 117 | 1.0 | 5.0 | 0.00 | 0.00 | 0.00 | 79 | 1009.7 |
| 20260830161603 | 77 | 246 | 1.0 | 6.0 | 0.00 | 0.00 | 0.00 | 78 | 1009.1 |
| 20260830160104 | 76 | 199 | 1.0 | 6.0 | 0.00 | 0.00 | 0.00 | 80 | 1009.0 |
| 20260830154605 | 77 | 45 | 1.0 | 4.0 | 0.00 | 0.00 | 0.00 | 80 | 1009.1 |
| 20260830153101 | 76 | 201 | 1.0 | 5.0 | 0.00 | 0.00 | 0.00 | 80 | 1009.1 |
| 20260830151601 | 76 | 27 | 2.0 | 4.0 | 0.00 | 0.00 | 0.00 | 80 | 1009.1 |
| 20260830150053 | 75 | 335 | 2.0 | 7.0 | 0.00 | 0.00 | 0.00 | 81 | 1009.3 |
| 20260830144608 | 73 | 8 | 1.0 | 5.0 | 0.00 | 0.00 | 0.00 | 83 | 1009.2 |
| 20260830143054 | 72 | 349 | 0.0 | 3.0 | 0.00 | 0.00 | 0.00 | 85 | 1009.1 |
| 20260830141551 | 71 | 51 | 0.0 | 4.0 | 0.00 | 0.00 | 0.00 | 86 | 1009.2 |
| 20260830140107 | 71 | 40 | 0.0 | 4.0 | 0.00 | 0.00 | 0.00 | 87 | 1009.6 |
| 20260830134557 | 71 | 35 | 0.0 | 3.0 | 0.00 | 0.00 | 0.00 | 87 | 1009.7 |
| 20260830133102 | 69 | 0 | 1.0 | 5.0 | 0.00 | 0.00 | 0.00 | 88 | 1009.4 |
| 20260830131601 | 69 | 49 | 0.0 | 2.0 | 0.00 | 0.00 | 0.00 | 89 | 1009.2 |
| 20260830130115 | 68 | 40 | 0.0 | 3.0 | 0.00 | 0.00 | 0.00 | 90 | 1009.2 |
| 20260830124553 | 68 | 45 | 1.0 | 3.0 | 0.00 | 0.01 | 0.00 | 90 | 1009.1 |
| 20260830123103 | 68 | 11 | 1.0 | 2.0 | 0.00 | 0.01 | 0.00 | 90 | 1009.1 |
| 20260830121559 | 67 | 0 | 0.0 | 1.0 | 0.00 | 0.01 | 0.00 | 90 | 1009.0 |
| 20260830120119 | 67 | 23 | 0.0 | 1.0 | 0.00 | 0.01 | 0.00 | 90 | 1009.0 |
| 20260830114553 | 67 | 0 | 0.0 | 1.0 | 0.00 | 0.14 | 0.00 | 90 | 1008.9 |
| 20260830113053 | 67 | 0 | 0.0 | 1.0 | 0.00 | 0.14 | 0.00 | 90 | 1008.9 |
| 20260830111551 | 67 | 0 | 0.0 | 3.0 | 0.00 | 0.14 | 0.00 | 90 | 1008.9 |
| 20260830110059 | 67 | 0 | 0.0 | 1.0 | 0.00 | 0.14 | 0.00 | 90 | 1009.2 |
| 20260830104550 | 67 | 0 | 0.0 | 1.0 | 0.00 | 0.25 | 0.00 | 90 | 1009.5 |
| 20260830103059 | 67 | 0 | 0.0 | 1.0 | 0.00 | 0.25 | 0.00 | 90 | 1009.2 |
| 20260830101600 | 67 | 49 | 0.0 | 1.0 | 0.00 | 0.25 | 0.00 | 90 | 1009.5 |
| 20260830100055 | 67 | 0 | 0.0 | 1.0 | 0.00 | 0.25 | 0.00 | 89 | 1009.3 |
| 20260830094552 | 68 | 0 | 0.0 | 2.0 | 0.00 | 0.31 | 0.00 | 89 | 1008.9 |
| 20260830093057 | 68 | 51 | 0.0 | 2.0 | 0.00 | 0.31 | 0.00 | 89 | 1008.9 |
| 20260830091600 | 68 | 24 | 0.0 | 2.0 | 0.00 | 0.31 | 0.00 | 89 | 1009.1 |
| 20260830090106 | 68 | 34 | 0.0 | 1.0 | 0.00 | 0.31 | 0.00 | 88 | 1009.1 |
| 20260830084559 | 68 | 37 | 0.0 | 1.0 | 0.00 | 0.31 | 0.00 | 88 | 1009.1 |
| 20260830083108 | 68 | 39 | 0.0 | 1.0 | 0.00 | 0.31 | 0.00 | 88 | 1009.3 |
| 20260830081607 | 69 | 0 | 0.0 | 1.0 | 0.00 | 0.31 | 0.00 | 87 | 1009.3 |
| 20260830080101 | 69 | 0 | 0.0 | 1.0 | 0.00 | 0.31 | 0.00 | 87 | 1009.3 |
| 20260830074558 | 69 | 15 | 0.0 | 1.0 | 0.00 | 0.31 | 0.00 | 87 | 1009.3 |
| 20260830073100 | 69 | 15 | 0.0 | 1.0 | 0.00 | 0.31 | 0.00 | 86 | 1009.7 |
| 20260830071608 | 69 | 0 | 0.0 | 1.0 | 0.00 | 0.31 | 0.00 | 86 | 1009.5 |
| 20260830070112 | 69 | 0 | 0.0 | 1.0 | 0.00 | 0.31 | 0.00 | 86 | 1009.9 |
| 20260830064552 | 69 | 0 | 0.0 | 1.0 | 0.00 | 0.31 | 0.00 | 86 | 1009.7 |
| 20260830063059 | 70 | 53 | 0.0 | 1.0 | 0.00 | 0.31 | 0.00 | 86 | 1009.7 |
| 20260830061557 | 70 | 0 | 0.0 | 1.0 | 0.00 | 0.31 | 0.00 | 85 | 1009.8 |
| 20260830060100 | 70 | 0 | 0.0 | 1.0 | 0.00 | 0.31 | 0.00 | 85 | 1010.1 |
| 20260830054549 | 70 | 53 | 0.0 | 1.0 | 0.00 | 0.31 | 0.00 | 85 | 1010.1 |
| 20260830053054 | 71 | 0 | 0.0 | 1.0 | 0.00 | 0.31 | 0.00 | 84 | 1010.2 |
| 20260830051601 | 71 | 0 | 0.0 | 0.0 | 0.00 | 0.31 | 0.00 | 84 | 1010.1 |
| 20260830050057 | 71 | 53 | 0.0 | 1.0 | 0.00 | 0.31 | 0.00 | 85 | 1010.1 |
| 20260830044604 | 71 | 53 | 0.0 | 1.0 | 0.00 | 0.31 | 0.31 | 84 | 1010.3 |
| 20260830043101 | 72 | 0 | 0.0 | 1.0 | 0.00 | 0.31 | 0.31 | 83 | 1010.4 |
| 20260830041605 | 72 | 54 | 1.0 | 3.0 | 0.00 | 0.31 | 0.31 | 82 | 1010.5 |